Flight Track Log - Related Links

Times and Time Zones

All times are in EDT time to prevent confusion due to time zone crossing. See the EJA930 flight status page for this flight to view local times or setup timezone preferences in your user account.

Time Position Orientation Groundspeed Altitude Reporting Facility
EDT Latitude Longitude Course Direction KTS MPH feet Rate Location/Type
Mon 04:36:09 PM 43.2450 -75.5044 266° West 237 273 4,900  Level Boston Center
Mon 04:36:56 PM 43.1994 -75.4908 168° South 222 255 7,200 2,644 Climbing Boston Center
Mon 04:38:07 PM 43.1319 -75.4475 155° Southeast 249 287 10,100 2,318 Climbing Boston Center
Mon 04:39:08 PM 43.0419 -75.3833 152° Southeast 283 326 12,300 2,380 Climbing Boston Center
Mon 04:40:08 PM 42.9700 -75.3344 154° Southeast 315 362 14,900 1,300 Climbing Boston Center
Mon 04:41:08 PM 42.8800 -75.2736 154° Southeast 341 392 14,900  Level Boston Center
Mon 04:42:08 PM 42.7897 -75.2128 154° Southeast 356 410 14,900  Level Boston Center
Mon 04:43:08 PM 42.6975 -75.1494 153° Southeast 370 426 14,900  Level Boston Center
Mon 04:44:08 PM 42.6031 -75.0861 154° Southeast 375 432 14,900  Level Boston Center
Mon 04:45:08 PM 42.5086 -75.0228 154° Southeast 375 432 14,900  Level Boston Center
Mon 04:46:08 PM 42.4119 -74.9597 154° Southeast 375 432 14,900  Level Boston Center
Mon 04:47:08 PM 42.3175 -74.8969 154° Southeast 375 432 14,900  Level Boston Center
Mon 04:48:08 PM 42.2250 -74.8344 153° Southeast 375 432 14,900  Level Boston Center
Mon 04:49:08 PM 42.1325 -74.7778 156° South 375 432 14,900 -150 Level Boston Center
Mon 04:50:08 PM 42.0400 -74.7100 151° Southeast 375 432 14,600 -800 Descending Boston Center
Mon 04:51:08 PM 41.9414 -74.6450 154° Southeast 375 432 13,300 -1,350 Descending Boston Center
Mon 04:52:08 PM 41.8631 -74.5950 155° Southeast 357 411 11,900 -1,600 Descending Boston Center
Mon 04:53:08 PM 41.7703 -74.5361 155° Southeast 344 396 10,100 -1,650 Descending Boston Center
Mon 04:54:08 PM 41.7014 -74.5394 182° South 293 337 8,600 -962 Descending Boston Center
Mon 04:55:19 PM 41.6219 -74.5506 186° South 273 314 8,000 -409 Descending Boston Center
Mon 04:56:20 PM 41.5383 -74.5672 188° South 268 308 7,700 -496 Descending Boston Center
Mon 04:57:20 PM 41.4694 -74.5817 189° South 262 302 7,000 -182 Descending Boston Center
Mon 04:59:38 PM 41.3167 -74.6167 190° South 224 258 7,100 -61 Climbing New York TRACON
Mon 05:00:38 PM 41.2500 -74.6500 201° Southwest 236 272 6,800 -1,300 Descending New York TRACON
Mon 05:02:00 PM 41.1456 -74.6793 194° South  Level FlightAware Approximate
Mon 05:02:38 PM 41.1333 -74.6167 194° South 247 284 3,200  Level New York TRACON
Mon 05:03:38 PM 41.1000 -74.5333 118° Southeast 230 265 3,100 -50 Descending New York TRACON
Mon 05:04:38 PM 41.0833 -74.4500 105° East 205 236 3,100  Level New York TRACON
Mon 05:06:38 PM 41.0833 -74.3167 90° East 195 224 3,100  Level New York TRACON
Mon 05:07:38 PM 41.0833 -74.2500 90° East 196 226 3,100  Level New York TRACON
Mon 05:08:33 PM 41.0667 -74.1833 108° East 192 221 3,100 -500 Level New York TRACON
Mon 05:09:38 PM 41.0500 -74.1167 108° East 194 223 2,100 -480 Descending New York TRACON
Mon 05:10:38 PM 41.0167 -74.0667 131° Southeast 170 196 2,100  Level New York TRACON
Mon 05:11:33 PM 40.9833 -74.0500 159° South 167 192 2,100 -261 Level New York TRACON
Mon 05:12:33 PM 40.9333 -74.0500 180° South 145 167 1,600 -555 Descending New York TRACON
Mon 05:13:32 PM 40.9000 -74.0500 180° South 115 132 1,000 -605 Descending New York TRACON
Mon 05:14:32 PM 40.8667 -74.0667 166° South 122 140 400 -600 Descending New York TRACON
Mon 05:15:00 PM 40.8500 -74.0500 166° South  Level FlightAware Approximate

Login

Don't have an account? Register now (free) for customized features, flight alerts, and more!